W5SDC Weather Reports


Display with metric or nautical units.
time (UTC)temp
F
wind
direction
speed
MPH
gust
MPH
rain 1hr
in
rain 24hr
in
rain mn
in
humidity
%
barometer
mb
20260508182526 78 73 4.0 6.0 0.00 0.00 0.00 74 1012.8
20260508182033 78 82 4.0 6.0 0.00 0.00 0.00 74 1012.9
20260508181702 78 57 4.0 6.0 0.00 0.00 0.00 74 1012.9
20260508181027 78 334 4.0 6.0 0.00 0.00 0.00 74 1012.9
20260508180516 77 340 5.0 6.0 0.00 0.00 0.00 74 1012.9
20260508180023 77 34 3.0 5.0 0.00 0.00 0.00 75 1013.1
20260508175529 77 52 3.0 5.0 0.00 0.00 0.00 75 1013.1
20260508175017 77 311 3.0 5.0 0.00 0.00 0.00 74 1013.2
20260508174524 76 305 2.0 4.0 0.00 0.00 0.00 75 1013.3
20260508174031 76 319 3.0 6.0 0.00 0.00 0.00 76 1013.3
20260508173539 75 348 3.0 5.0 0.00 0.00 0.00 76 1013.4
20260508173025 75 350 3.0 5.0 0.00 0.00 0.00 76 1013.4
20260508172532 74 330 3.0 5.0 0.00 0.00 0.00 77 1013.4
20260508172020 73 321 3.0 4.0 0.00 0.00 0.00 79 1013.5
20260508171527 72 317 4.0 6.0 0.00 0.00 0.00 79 1013.5
20260508171015 73 330 4.0 7.0 0.00 0.00 0.00 79 1013.5
20260508170522 72 319 3.0 5.0 0.00 0.00 0.00 80 1013.5
20260508170029 72 7 4.0 6.0 0.00 0.00 0.00 79 1013.8
20260508165537 72 318 3.0 4.0 0.00 0.00 0.00 78 1013.8
20260508165043 72 321 4.0 5.0 0.00 0.00 0.00 78 1014.0
20260508164530 72 338 0.0 3.0 0.00 0.00 0.00 78 1014.1
20260508164038 72 318 1.0 3.0 0.00 0.00 0.00 79 1014.1
20260508163525 72 0.0 0.0 0.00 0.00 0.00 78 1014.3
20260508163031 72 165 1.0 2.0 0.00 0.00 0.00 77 1014.3
20260508162520 73 179 1.0 3.0 0.00 0.00 0.00 76 1014.2
20260508162026 73 135 3.0 4.0 0.00 0.00 0.00 75 1014.2
20260508161533 73 29 2.0 3.0 0.00 0.00 0.00 76 1014.3
20260508161041 73 348 2.0 3.0 0.00 0.00 0.00 75 1014.4
20260508160528 72 356 1.0 3.0 0.00 0.00 0.00 77 1014.4
20260508160016 72 113 0.0 2.0 0.00 0.00 0.00 78 1014.5
20260508155523 71 203 0.0 3.0 0.00 0.00 0.00 79 1014.5
20260508155029 70 223 3.0 5.0 0.00 0.00 0.00 80 1014.6
20260508154518 70 163 3.0 4.0 0.00 0.00 0.00 80 1014.6
20260508154025 69 169 1.0 2.0 0.00 0.00 0.00 80 1014.6
20260508153551 69 207 1.0 3.0 0.00 0.00 0.00 81 1014.7
20260508153039 69 132 2.0 4.0 0.00 0.00 0.00 81 1014.7
20260508152526 69 113 2.0 4.0 0.00 0.00 0.00 80 1014.5
20260508152032 69 145 3.0 4.0 0.00 0.00 0.00 81 1014.5
20260508151520 69 133 3.0 4.0 0.00 0.00 0.00 81 1014.5
20260508151027 69 196 2.0 3.0 0.00 0.00 0.00 81 1014.6
20260508150515 69 173 3.0 5.0 0.00 0.00 0.00 80 1014.6
20260508150022 69 159 1.0 3.0 0.00 0.00 0.00 80 1014.7
20260508145529 69 102 1.0 2.0 0.00 0.00 0.00 81 1014.7
20260508145037 68 38 2.0 3.0 0.00 0.00 0.00 81 1014.7
20260508144523 68 91 3.0 4.0 0.00 0.00 0.00 81 1014.7
20260508144030 67 122 4.0 5.0 0.00 0.00 0.00 82 1014.7
20260508143539 67 121 3.0 4.0 0.00 0.00 0.00 82 1014.5
20260508143025 67 155 3.0 4.0 0.00 0.00 0.00 82 1014.5
20260508142532 68 61 2.0 5.0 0.00 0.00 0.00 80 1014.6
20260508142020 68 47 3.0 4.0 0.00 0.00 0.00 80 1014.6
20260508141526 68 103 2.0 3.0 0.00 0.00 0.00 79 1014.6
20260508141033 67 147 2.0 4.0 0.00 0.00 0.00 81 1014.5
20260508140521 68 119 3.0 5.0 0.00 0.00 0.00 79 1014.5
20260508140028 68 13 2.0 4.0 0.00 0.00 0.00 80 1014.6
20260508135516 68 115 3.0 5.0 0.00 0.00 0.00 79 1014.6
20260508135023 69 118 4.0 6.0 0.00 0.00 0.00 78 1014.6
20260508134529 68 91 2.0 4.0 0.00 0.00 0.00 80 1014.6
20260508134018 66 31 3.0 4.0 0.00 0.00 0.00 82 1014.6
20260508133524 65 62 3.0 5.0 0.00 0.00 0.00 84 1014.7
20260508133031 64 2 5.0 6.0 0.00 0.00 0.00 86 1014.7
20260508132519 64 345 3.0 5.0 0.00 0.00 0.00 87 1015.1
20260508132026 63 338 1.0 3.0 0.00 0.00 0.00 88 1015.3
20260508131553 63 0.0 0.0 0.00 0.00 0.00 88 1015.1
20260508131041 62 0.0 0.0 0.00 0.00 0.00 88 1014.9
20260508130527 62 335 1.0 3.0 0.00 0.00 0.00 89 1014.9
20260508130015 62 341 2.0 3.0 0.00 0.00 0.00 89 1015.0
20260508125522 62 9 2.0 3.0 0.00 0.00 0.00 89 1015.0
20260508125029 61 6 1.0 3.0 0.00 0.00 0.00 90 1015.0
20260508124517 61 329 2.0 3.0 0.00 0.00 0.00 90 1014.9
20260508124044 61 353 2.0 3.0 0.00 0.00 0.00 90 1015.0
20260508123530 61 344 3.0 4.0 0.00 0.00 0.00 90 1015.3
20260508123020 61 40 3.0 4.0 0.00 0.00 0.00 90 1015.3
20260508122545 61 40 2.0 4.0 0.00 0.00 0.00 90 1015.3
20260508122032 61 25 2.0 3.0 0.00 0.00 0.00 90 1015.3
20260508121520 61 335 3.0 4.0 0.00 0.00 0.00 90 1015.3
20260508121027 61 33 2.0 3.0 0.00 0.00 0.00 90 1015.3
20260508120533 61 23 2.0 4.0 0.00 0.00 0.00 90 1015.3
20260508120023 61 7 2.0 3.0 0.00 0.00 0.00 90 1015.3
20260508115649 60 356 2.0 3.0 0.00 0.00 0.00 90 1015.3
20260508115016 60 33 2.0 4.0 0.00 0.00 0.00 90 1015.4
20260508114523 60 32 2.0 3.0 0.00 0.00 0.00 90 1015.5
20260508114029 60 51 2.0 4.0 0.00 0.00 0.00 90 1015.5
20260508113558 60 333 3.0 4.0 0.00 0.00 0.00 90 1015.8
20260508113024 60 353 3.0 5.0 0.00 0.00 0.00 90 1015.8
20260508112531 60 336 3.0 5.0 0.00 0.00 0.00 90 1015.8
20260508112019 60 353 4.0 5.0 0.00 0.00 0.00 90 1015.8
20260508111526 60 320 2.0 4.0 0.00 0.00 0.00 90 1015.6
20260508111032 60 322 2.0 5.0 0.00 0.00 0.00 90 1015.3
20260508110521 60 333 4.0 6.0 0.00 0.00 0.00 90 1015.3
20260508110027 60 355 5.0 6.0 0.00 0.00 0.00 90 1015.0
20260508105516 60 346 5.0 7.0 0.00 0.00 0.00 90 1015.0
20260508105022 60 337 5.0 7.0 0.00 0.00 0.00 90 1015.0
20260508104549 60 346 6.0 7.0 0.00 0.00 0.00 90 1015.0
20260508104017 60 349 5.0 7.0 0.00 0.00 0.00 90 1015.1
20260508103544 60 335 5.0 7.0 0.00 0.00 0.00 90 1015.5
20260508103030 61 353 5.0 6.0 0.00 0.00 0.00 90 1015.5
20260508102518 61 343 4.0 7.0 0.00 0.00 0.00 90 1015.6
20260508102045 61 329 4.0 6.0 0.00 0.00 0.00 90 1015.6
20260508101531 61 322 3.0 4.0 0.00 0.00 0.00 90 1015.8
20260508101020 61 330 4.0 6.0 0.00 0.00 0.00 90 1016.0
20260508100527 61 323 4.0 6.0 0.00 0.00 0.00 89 1016.0
20260508100033 61 340 4.0 6.0 0.00 0.00 0.00 88 1016.0
20260508095521 61 333 4.0 5.0 0.00 0.00 0.00 88 1016.0
20260508095028 61 341 4.0 6.0 0.00 0.00 0.00 88 1015.9
20260508094516 61 322 4.0 5.0 0.00 0.00 0.00 88 1015.8
20260508094023 61 352 4.0 6.0 0.00 0.00 0.00 88 1015.8
20260508093529 61 335 3.0 5.0 0.00 0.00 0.00 88 1015.8
20260508093017 61 349 4.0 5.0 0.00 0.00 0.00 88 1015.8
20260508092524 61 339 3.0 4.0 0.00 0.00 0.00 88 1015.6
20260508092031 61 352 3.0 4.0 0.00 0.00 0.00 88 1015.5
20260508091519 61 332 2.0 3.0 0.00 0.00 0.00 88 1015.5
20260508091026 61 338 2.0 3.0 0.00 0.00 0.00 88 1015.5
20260508090552 61 326 2.0 3.0 0.00 0.00 0.00 88 1015.5
20260508090020 61 347 2.0 3.0 0.00 0.00 0.00 87 1015.3
20260508085527 61 2 2.0 4.0 0.00 0.00 0.00 87 1015.3
20260508085036 61 355 2.0 4.0 0.00 0.00 0.00 87 1015.3
20260508084542 61 40 3.0 4.0 0.00 0.00 0.00 87 1015.3
20260508084029 61 15 2.0 4.0 0.00 0.00 0.00 87 1015.3
20260508083517 61 25 1.0 4.0 0.00 0.00 0.00 87 1015.5
20260508083044 61 92 2.0 3.0 0.00 0.00 0.00 87 1015.5
20260508082530 61 9 2.0 3.0 0.00 0.00 0.00 87 1015.5
20260508082018 61 53 2.0 3.0 0.00 0.00 0.00 87 1015.5
20260508081525 60 36 1.0 3.0 0.00 0.00 0.00 88 1015.4
20260508081052 60 135 0.0 2.0 0.00 0.00 0.00 88 1015.3
20260508080520 60 70 2.0 4.0 0.00 0.00 0.00 88 1015.3
20260508080026 60 44 2.0 3.0 0.00 0.00 0.00 88 1015.3
20260508075553 60 22 3.0 4.0 0.00 0.00 0.00 88 1015.3
20260508075021 60 23 3.0 4.0 0.00 0.00 0.00 88 1015.3
20260508074528 60 6 3.0 4.0 0.00 0.00 0.00 89 1015.3
20260508074016 60 334 3.0 5.0 0.00 0.00 0.00 89 1015.3
20260508073523 60 16 3.0 4.0 0.00 0.00 0.00 89 1015.3
20260508073030 60 357 3.0 5.0 0.00 0.00 0.00 89 1015.3
20260508072518 60 2 3.0 4.0 0.00 0.00 0.00 90 1015.3
20260508072024 60 24 2.0 4.0 0.00 0.00 0.00 90 1015.3
20260508071531 60 326 4.0 5.0 0.00 0.00 0.00 90 1015.4
20260508071019 60 349 4.0 5.0 0.00 0.00 0.00 90 1015.6
20260508070526 60 4 3.0 4.0 0.00 0.00 0.00 91 1015.6
20260508070032 60 47 2.0 3.0 0.00 0.00 0.00 91 1015.8
20260508065541 60 41 2.0 4.0 0.00 0.00 0.00 91 1015.8
20260508065027 60 342 3.0 5.0 0.00 0.00 0.00 91 1016.0
20260508064516 59 350 3.0 3.0 0.00 0.00 0.00 92 1016.0
20260508064022 59 7 2.0 3.0 0.00 0.00 0.00 92 1016.1
20260508063528 59 348 2.0 3.0 0.00 0.00 0.00 92 1016.3
20260508063017 59 105 2.0 3.0 0.00 0.00 0.00 92 1016.3
20260508062523 59 41 2.0 2.0 0.00 0.00 0.00 92 1016.4
20260508062030 59 347 1.0 2.0 0.00 0.00 0.00 92 1016.5
20260508061518 59 38 1.0 2.0 0.00 0.00 0.00 92 1016.4
20260508061025 59 337 2.0 4.0 0.00 0.00 0.00 92 1016.3
20260508060532 60 318 2.0 3.0 0.00 0.00 0.00 91 1016.3
20260508060020 60 331 2.0 3.0 0.00 0.00 0.00 91 1016.0
20260508055526 60 332 2.0 3.0 0.00 0.00 0.00 91 1016.0
20260508055053 60 358 2.0 4.0 0.00 0.00 0.00 91 1016.2
20260508054542 60 60 1.0 3.0 0.00 0.00 0.00 91 1016.3
20260508054028 60 108 1.0 2.0 0.00 0.00 0.00 91 1016.3
20260508053516 60 0.0 0.0 0.00 0.00 0.00 90 1016.3
20260508053023 60 0.0 0.0 0.00 0.00 0.00 90 1016.3
20260508052610 60 351 2.0 3.0 0.00 0.00 0.00 90 1016.3
20260508052018 60 333 2.0 3.0 0.00 0.00 0.00 90 1016.4
20260508051524 60 312 3.0 4.0 0.00 0.00 0.00 89 1016.2
20260508051031 60 317 3.0 4.0 0.00 0.00 0.00 89 1016.0
20260508050520 60 7 3.0 4.0 0.00 0.00 0.00 89 1016.0
20260508050026 60 1 3.0 4.0 0.00 0.00 0.00 89 1016.2
20260508045613 60 46 3.0 4.0 0.00 0.00 0.00 89 1016.2
20260508045021 60 51 2.0 3.0 0.00 0.00 0.00 89 1016.5
20260508044528 60 42 2.0 3.0 0.00 0.00 0.00 89 1016.7
20260508044016 60 287 3.0 4.0 0.00 0.00 0.00 90 1016.6
20260508043522 60 321 3.0 5.0 0.00 0.00 0.00 90 1016.2
20260508043029 60 316 4.0 5.0 0.00 0.00 0.00 91 1016.2
20260508042518 60 330 3.0 4.0 0.00 0.00 0.00 91 1016.1
20260508042044 59 345 2.0 4.0 0.00 0.00 0.00 92 1016.0
20260508041530 59 101 2.0 3.0 0.00 0.00 0.00 92 1016.4
20260508041019 59 127 1.0 2.0 0.00 0.00 0.00 92 1017.1
20260508040646 59 264 1.0 3.0 0.00 0.00 0.00 91 1017.1
20260508040052 59 260 2.0 3.0 0.00 0.00 0.00 91 1016.5
20260508035520 59 178 0.0 2.0 0.00 0.00 0.00 90 1016.5
20260508035027 59 105 1.0 3.0 0.00 0.00 0.00 90 1016.8
20260508034536 59 338 0.0 2.0 0.00 0.00 0.00 90 1017.0
20260508034022 60 0.0 0.0 0.00 0.00 0.00 89 1017.0
20260508033528 60 0.0 0.0 0.00 0.00 0.00 89 1017.0
20260508033017 60 0.0 0.0 0.00 0.00 0.00 89 1017.0
20260508032523 60 158 1.0 2.0 0.00 0.00 0.00 88 1017.3
20260508032030 60 0.0 0.0 0.00 0.00 0.00 88 1017.4
20260508031539 60 0.0 0.0 0.00 0.00 0.00 87 1017.2
20260508031025 60 0.0 0.0 0.00 0.00 0.00 87 1016.9
20260508030552 61 219 1.0 2.0 0.00 0.00 0.00 86 1016.8
20260508030020 61 0.0 0.0 0.00 0.00 0.00 86 1016.0
20260508025527 61 113 0.0 2.0 0.00 0.00 0.00 86 1016.0
20260508025016 61 14 2.0 3.0 0.00 0.00 0.00 85 1015.9
20260508024542 61 324 1.0 3.0 0.00 0.00 0.00 85 1015.8
20260508024028 61 321 4.0 5.0 0.00 0.00 0.00 85 1015.8
20260508023535 61 3.0 3.0 0.00 0.00 0.00 85 1015.5
20260508023032 61 33 3.0 4.0 0.00 0.00 0.00 84 1015.5
20260508022520 61 336 3.0 5.0 0.00 0.00 0.00 84 1014.9
20260508022026 62 11 4.0 7.0 0.00 0.00 0.00 83 1014.7
20260508021532 62 24 5.0 9.0 0.00 0.00 0.00 83 1014.9
20260508021021 62 31 4.0 6.0 0.00 0.00 0.00 83 1015.0
20260508020527 62 28 4.0 7.0 0.00 0.00 0.00 83 1015.0
20260508020034 62 15 3.0 5.0 0.00 0.00 0.00 82 1015.1
20260508015521 62 357 4.0 6.0 0.00 0.00 0.00 82 1015.1
20260508015028 62 21 4.0 7.0 0.00 0.00 0.00 81 1015.2
20260508014516 62 30 4.0 6.0 0.00 0.00 0.00 81 1015.3
20260508014022 62 43 4.0 7.0 0.00 0.00 0.00 81 1015.2
20260508013529 62 336 4.0 6.0 0.00 0.00 0.00 81 1015.0
20260508013017 63 44 4.0 6.0 0.00 0.00 0.00 80 1015.0
20260508012524 63 21 4.0 7.0 0.00 0.00 0.00 80 1014.8
20260508012030 63 61 3.0 5.0 0.00 0.00 0.00 80 1014.7
20260508011518 63 108 4.0 6.0 0.00 0.00 0.00 80 1014.9
20260508011024 63 2 4.0 6.0 0.00 0.00 0.00 79 1015.0
20260508010551 63 59 4.0 7.0 0.00 0.00 0.00 79 1015.0
20260508010019 63 62 4.0 5.0 0.00 0.00 0.00 78 1015.6
20260508005525 63 44 4.0 5.0 0.00 0.00 0.00 77 1015.6
20260508005032 64 16 4.0 6.0 0.00 0.00 0.00 77 1015.6
20260508004520 64 339 5.0 7.0 0.00 0.00 0.00 77 1015.6
20260508004026 64 3.0 3.0 0.00 0.00 0.00 76 1015.6
20260508003518 64 350 6.0 9.0 0.00 0.00 0.00 75 1015.5
20260508003025 64 102 4.0 6.0 0.00 0.00 0.00 75 1015.5
20260508002047 64 339 6.0 6.0 0.00 0.00 0.00 75 1015.8
20260508001520 65 348 4.0 5.0 0.00 0.00 0.00 74 1016.1
20260508001027 65 46 5.0 6.0 0.00 0.00 0.00 73 1016.4
20260508000535 65 347 5.0 7.0 0.00 0.00 0.00 73 1016.4
20260508000022 66 341 3.0 5.0 0.00 0.00 0.00 71 1016.7
20260507235528 66 27 4.0 5.0 0.00 0.00 0.00 70 1016.7
20260507235016 66 347 4.0 5.0 0.00 0.00 0.00 71 1016.7
20260507234523 66 1 4.0 6.0 0.00 0.00 0.00 71 1016.7
20260507234029 67 341 3.0 5.0 0.00 0.00 0.00 71 1016.7
20260507233518 67 354 2.0 3.0 0.00 0.00 0.00 71 1016.7
20260507233025 67 10 3.0 5.0 0.00 0.00 0.00 70 1016.7
20260507232530 67 39 2.0 4.0 0.00 0.00 0.00 70 1016.4
20260507232018 67 50 3.0 5.0 0.00 0.00 0.00 70 1016.4
20260507231525 66 13 3.0 4.0 0.00 0.00 0.00 72 1016.4
20260507231032 66 57 4.0 5.0 0.00 0.00 0.00 73 1016.5
20260507230520 66 4 6.0 8.0 0.00 0.00 0.00 73 1016.5
20260507230046 66 359 6.0 10.0 0.00 0.00 0.00 73 1016.5
20260507225533 66 0 5.0 7.0 0.00 0.00 0.00 72 1016.5
20260507225021 66 351 5.0 7.0 0.00 0.00 0.00 73 1016.6
20260507224527 66 355 4.0 7.0 0.00 0.00 0.00 74 1016.7
20260507224016 66 345 6.0 9.0 0.00 0.00 0.00 73 1016.8
20260507223522 66 327 5.0 7.0 0.00 0.00 0.00 73 1017.0
20260507223029 66 334 6.0 8.0 0.00 0.00 0.00 73 1017.0
20260507222517 66 324 6.0 7.0 0.00 0.00 0.00 74 1016.9
20260507222044 66 343 5.0 6.0 0.00 0.00 0.00 75 1016.8
20260507221550 66 11 4.0 6.0 0.00 0.00 0.00 75 1017.0
20260507221018 66 339 6.0 8.0 0.00 0.00 0.00 75 1017.2
20260507220524 66 332 7.0 10.0 0.00 0.00 0.00 74 1017.2
20260507220031 66 303 6.0 9.0 0.00 0.00 0.00 74 1017.2
20260507215519 66 347 6.0 7.0 0.00 0.00 0.00 72 1017.2
20260507215106 66 18 5.0 7.0 0.00 0.00 0.00 71 1017.4
20260507214552 66 353 7.0 10.0 0.00 0.00 0.00 71 1017.6
20260507214020 67 331 6.0 8.0 0.00 0.00 0.00 72 1017.6
20260507213527 67 328 6.0 10.0 0.00 0.00 0.00 72 1017.6
20260507213015 67 311 6.0 8.0 0.00 0.00 0.00 72 1017.6
20260507212522 67 325 6.0 7.0 0.00 0.00 0.00 73 1017.4
20260507212028 66 322 6.0 8.0 0.00 0.00 0.00 74 1017.3
20260507211536 66 330 7.0 8.0 0.00 0.00 0.00 74 1017.1
20260507211023 66 329 7.0 8.0 0.00 0.00 0.00 74 1016.8
20260507210529 65 354 6.0 8.0 0.00 0.00 0.00 74 1016.8
20260507210017 65 58 6.0 8.0 0.00 0.00 0.00 74 1017.4
20260507205524 65 355 6.0 7.0 0.00 0.00 0.00 75 1017.4
20260507205031 65 338 5.0 7.0 0.00 0.00 0.00 76 1017.6
20260507204518 65 358 5.0 7.0 0.00 0.00 0.00 75 1017.7
20260507204025 65 349 5.0 8.0 0.00 0.00 0.00 75 1017.7
20260507203532 65 332 6.0 8.0 0.00 0.00 0.00 76 1017.7
20260507203020 65 335 5.0 7.0 0.00 0.00 0.00 75 1017.7
20260507202526 65 354 3.0 6.0 0.00 0.00 0.00 75 1018.0
20260507202033 65 337 7.0 9.0 0.00 0.00 0.00 75 1018.0
20260507201521 65 325 7.0 8.0 0.00 0.00 0.00 75 1018.1
20260507201027 65 356 6.0 8.0 0.00 0.00 0.00 75 1018.1
20260507200516 65 16 4.0 7.0 0.00 0.00 0.00 75 1018.1
20260507200023 64 324 7.0 10.0 0.00 0.00 0.00 75 1018.0
20260507195528 64 6 6.0 7.0 0.00 0.00 0.00 75 1018.0
20260507195017 64 17 6.0 9.0 0.00 0.00 0.00 75 1018.3
20260507194523 65 355 4.0 6.0 0.00 0.00 0.00 75 1018.5
20260507194030 65 313 4.0 5.0 0.00 0.00 0.00 76 1018.6
20260507193518 64 347 5.0 7.0 0.00 0.00 0.00 76 1018.7
20260507193025 64 2 5.0 7.0 0.00 0.00 0.00 76 1018.7
20260507192551 64 336 6.0 8.0 0.00 0.00 0.00 76 1018.6
20260507192019 64 341 7.0 8.0 0.00 0.00 0.00 77 1018.5
20260507191526 64 353 5.0 7.0 0.00 0.00 0.00 77 1018.6
20260507191032 64 357 6.0 7.0 0.00 0.00 0.00 78 1018.7
20260507190521 63 332 6.0 8.0 0.00 0.00 0.00 78 1018.7
20260507190027 63 331 6.0 7.0 0.00 0.00 0.00 79 1018.1
20260507185515 63 2 6.0 8.0 0.00 0.00 0.00 80 1018.1
20260507185022 63 339 7.0 9.0 0.00 0.00 0.00 80 1018.4
20260507184528 63 13 7.0 10.0 0.00 0.00 0.00 80 1018.6
20260507184016 63 1 6.0 8.0 0.00 0.00 0.00 79 1018.6
20260507183523 63 14 6.0 9.0 0.00 0.00 0.00 79 1018.4
20260507183050 63 338 7.0 10.0 0.00 0.00 0.00 80 1018.4